Regional Weather Roundup
Issued by NWS

Home | Current Version | Previous Version | Graphics & Text | Print | Product List | Glossary On
Versions: 1 2 3 4 5 6 7 8 9 10 11 12 13 14 15 16 17 18 19 20 21 22 23 24 25 26 27 28 29 30 31 32 33 34 35 36 37 38 39 40 41 42 43 44 45 46 47 48 49 50
000
ASUS43 KLSX 220407
RWRMO

WEATHER SUMMARY FOR MISSOURI
NATIONAL WEATHER SERVICE SPRINGFIELD MO
1000 PM CST TUE FEB 21 2017

NOTE: "FAIR" INDICATES FEW OR NO CLOUDS BELOW 12,000 FEET WITH NO
       SIGNIFICANT WEATHER AND/OR OBSTRUCTIONS TO VISIBILITY.
       CURRENT SKY AND/OR WEATHER CONDITIONS ARE NOT AVAILABLE FOR
       CHILLICOTHE AND FARMINGTON.

MOZ001>031-035>038-043-044-053-054-220500-
...NORTHERN AND WESTERN MISSOURI...

CITY           SKY/WX    TMP DP  RH WIND       PRES   REMARKS
KANSAS CTY INT CLEAR     55  32  41 SW7       29.89S
KANSAS C DTWN  CLEAR     53  37  54 CALM      29.88F
LEE`S SUMMIT   CLEAR     57  46  66 S7        29.89S
ST JOSEPH      CLEAR     45  38  76 CALM      29.87S
CHILLICOTHE      N/A     44  39  82 CALM      29.88F
KIRKSVILLE     CLEAR     54  51  90 S7        29.87F

$$
MOZ066>068-077>081-088>096-101>105-220500-
...SOUTHWEST MISSOURI...

CITY           SKY/WX    TMP DP  RH WIND       PRES   REMARKS
SPRINGFIELD    FOG       50  49  96 S3        29.90F VSB 1/4
JOPLIN         CLEAR     55  50  83 S3        29.93R
BRANSON        CLOUDY    57  57 100 E6        29.93F

$$
MOZ032>034-039>042-045>050-055>058-069>072-220500-
...CENTRAL MISSOURI...

CITY           SKY/WX    TMP DP  RH WIND       PRES   REMARKS
COLUMBIA       FOG       55  55 100 S5        29.89F VSB 1/4
JEFFERSON CITY FOG       54  53  97 CALM      29.89F VSB 1/4
ROLLA          MOCLDY    57  56  96 E7        29.90F FOG
SEDALIA        CLEAR     56  53  90 S8        29.90S
WHITEMAN AFB   CLEAR     51  51 100 S3        29.88S
WARRENSBURG    CLEAR     54  46  76 SW3       29.89R

$$
MOZ051-052-059>065-220500-
...EAST CENTRAL MISSOURI...

CITY           SKY/WX    TMP DP  RH WIND       PRES   REMARKS
ST LOUIS INTL  MOCLDY    58  56  93 CALM      29.91F FOG
SPIRIT OF STL  FOG       55  55 100 CALM      29.90F VSB 1/4
ST CHARLES     FOG       53  53 100 E3        29.90F VSB 1/4

$$
MOZ072>076-082>087-097>100-106>115-220500-
...SOUTH CENTRAL AND SOUTHEAST MISSOURI...

CITY           SKY/WX    TMP DP  RH WIND       PRES   REMARKS
CAPE GIRARDEAU CLOUDY    58  55  90 S7        29.91S
FARMINGTON     CLOUDY    55  54  96 CALM      29.92F
POPLAR BLUFF   CLOUDY    59  58  96 N5        29.90F
WEST PLAINS    CLOUDY    54  53  97 N3        29.93S FOG

$$



USA.gov is the U.S. government's official web portal to all federal, state and local government web resources and services.